�v������,���r���O(���x),�����t���O,���r���O(���x),�����t���O,��1(���x),�����t���O,�������x,�����t���O
2/1/2003 0:00,18.4,1,58.4,1,13.2,1,8.2,1
2/1/2003 0:15,18.5,1,58.8,1,13.3,1,8.4,1
2/1/2003 0:30,18.4,1,57.9,1,13.4,1,8.5,1
2/1/2003 0:45,18.1,1,56.7,1,13.4,1,8.7,1
2/1/2003 1:00,17.7,1,54.7,1,13.4,1,8.8,1
2/1/2003 1:15,17.5,1,54.7,1,13.4,1,8.9,1
2/1/2003 1:30,17.3,1,54.2,1,13.4,1,9.1,1
2/1/2003 1:45,17,1,54.2,1,13.3,1,9.2,1
2/1/2003 2:00,16.8,1,53.8,1,13.2,1,9.3,1
2/1/2003 2:15,16.6,1,53.5,1,13.1,1,9.4,1
2/1/2003 2:30,16.4,1,53.4,1,13,1,9.5,1
2/1/2003 2:45,16.2,1,53.1,1,12.9,1,9.6,1
2/1/2003 3:00,16,1,53.1,1,12.8,1,9.7,1
2/1/2003 3:15,15.8,1,52.9,1,12.6,1,9.8,1
2/1/2003 3:30,15.6,1,52.8,1,12.5,1,9.9,1
2/1/2003 3:45,15.5,1,52.6,1,12.4,1,10,1
2/1/2003 4:00,15.3,1,52.5,1,12.2,1,10.1,1
2/1/2003 4:15,15.1,1,52.4,1,12.1,1,10.2,1
2/1/2003 4:30,14.9,1,52.4,1,12,1,10.3,1
2/1/2003 4:45,14.8,1,52.6,1,11.8,1,10.4,1
2/1/2003 5:00,14.7,1,52.6,1,11.6,1,10.5,1
2/1/2003 5:15,14.5,1,52.5,1,11.5,1,10.6,1
2/1/2003 5:30,14.4,1,52.6,1,11.4,1,10.7,1
2/1/2003 5:45,14.3,1,52.8,1,11.2,1,10.8,1
2/1/2003 6:00,14.2,1,52.7,1,11.1,1,10.9,1
2/1/2003 6:15,14,1,53.4,1,11,1,11,1
2/1/2003 6:30,14.2,1,55.6,1,10.8,1,7.7,1
2/1/2003 6:45,14.8,1,57.4,1,10.7,1,6.5,1
2/1/2003 7:00,15.2,1,59.9,1,10.6,1,6.7,1
2/1/2003 7:15,15.3,1,60.8,1,10.6,1,6.8,1
2/1/2003 7:30,15.6,1,61.9,1,10.7,1,7,1
2/1/2003 7:45,15.7,1,61.5,1,10.7,1,7.1,1
2/1/2003 8:00,15.1,1,57.3,1,10.8,1,7.3,1
2/1/2003 8:15,14.9,1,55.4,1,10.9,1,7.4,1
2/1/2003 8:30,14.7,1,54.2,1,11,1,7.5,1
2/1/2003 8:45,14.5,1,53.3,1,11.1,1,7.7,1
2/1/2003 9:00,14.4,1,52.8,1,11.3,1,7.8,1
2/1/2003 9:15,14.3,1,51.9,1,11.4,1,7.9,1
2/1/2003 9:30,14.2,1,51.9,1,11.5,1,8,1
2/1/2003 9:45,14.1,1,51.2,1,11.6,1,8.2,1
2/1/2003 10:00,14,1,51.1,1,11.7,1,8.3,1
2/1/2003 10:15,13.9,1,50.6,1,11.8,1,8.4,1
2/1/2003 10:30,13.8,1,50.6,1,11.9,1,8.5,1
2/1/2003 10:45,13.7,1,50.3,1,11.9,1,8.6,1
2/1/2003 11:00,13.7,1,49.8,1,12,1,8.7,1
2/1/2003 11:15,13.5,1,50,1,12,1,8.8,1
2/1/2003 11:30,13.5,1,49.3,1,11.9,1,8.9,1
2/1/2003 11:45,13.4,1,49.3,1,11.9,1,9,1
2/1/2003 12:00,13.4,1,48.8,1,11.9,1,9.1,1
2/1/2003 12:15,13.3,1,48.8,1,11.8,1,9.2,1
2/1/2003 12:30,13.2,1,48.9,1,11.8,1,9.3,1
2/1/2003 12:45,13.2,1,48.8,1,11.7,1,9.4,1
2/1/2003 13:00,13.1,1,48.4,1,11.7,1,9.4,1
2/1/2003 13:15,13.1,1,48.4,1,11.6,1,9.5,1
2/1/2003 13:30,13,1,48.4,1,11.6,1,9.6,1
2/1/2003 13:45,13,1,48.1,1,11.6,1,9.7,1
2/1/2003 14:00,13,1,48.1,1,11.5,1,9.7,1
2/1/2003 14:15,13,1,47.9,1,11.5,1,9.8,1
2/1/2003 14:30,12.9,1,47.6,1,11.5,1,9.9,1
2/1/2003 14:45,12.9,1,47.5,1,11.4,1,9.9,1
2/1/2003 15:00,12.8,1,47.5,1,11.4,1,10,1
2/1/2003 15:15,12.8,1,47.1,1,11.3,1,10.1,1
2/1/2003 15:30,12.8,1,47.3,1,11.3,1,10.2,1
2/1/2003 15:45,12.8,1,47.1,1,11.3,1,10.2,1
2/1/2003 16:00,12.7,1,47.1,1,11.2,1,10.3,1
2/1/2003 16:15,12.7,1,46.8,1,11.2,1,10.4,1
2/1/2003 16:30,12.7,1,46.7,1,11.1,1,10.5,1
2/1/2003 16:45,12.6,1,46.8,1,11.1,1,10.5,1
2/1/2003 17:00,12.6,1,46.4,1,11,1,10.6,1
2/1/2003 17:15,12.5,1,46.1,1,11,1,10.6,1
2/1/2003 17:30,12.5,1,46.4,1,10.9,1,10.7,1
2/1/2003 17:45,12.4,1,46.3,1,10.8,1,10.8,1
2/1/2003 18:00,12.3,1,46.1,1,10.7,1,10.8,1
2/1/2003 18:15,12.3,1,46,1,10.7,1,10.9,1
2/1/2003 18:30,13.6,1,48.2,1,10.6,1,10.9,1
2/1/2003 18:45,15,1,48.7,1,10.5,1,11,1
2/1/2003 19:00,16.1,1,48.3,1,10.5,1,11,1
2/1/2003 19:15,17,1,47.6,1,10.6,1,11.1,1
2/1/2003 19:30,17.7,1,50.7,1,10.7,1,11.1,1
2/1/2003 19:45,17,1,49.2,1,10.9,1,11.2,1
2/1/2003 20:00,17.2,1,49.2,1,11,1,11.2,1
2/1/2003 20:15,17.7,1,49,1,11.2,1,7,1
2/1/2003 20:30,18.2,1,50.3,1,11.3,1,7.1,1
2/1/2003 20:45,18.8,1,50.8,1,11.4,1,7.2,1
2/1/2003 21:00,19.2,1,50.5,1,11.4,1,7.4,1
2/1/2003 21:15,18.9,1,51.2,1,11.5,1,7.5,1
2/1/2003 21:30,19,1,52.5,1,11.5,1,7.6,1
2/1/2003 21:45,19.2,1,52.5,1,11.6,1,7.8,1
2/1/2003 22:00,19.3,1,52.3,1,11.6,1,7.9,1
2/1/2003 22:15,19.4,1,52.3,1,11.6,1,8,1
2/1/2003 22:30,19.5,1,52.5,1,11.6,1,8.2,1
2/1/2003 22:45,19.6,1,52.4,1,11.5,1,8.3,1
2/1/2003 23:00,19.5,1,52.5,1,11.5,1,8.4,1
2/1/2003 23:15,19.5,1,52.7,1,11.4,1,8.6,1
2/1/2003 23:30,19.6,1,52.6,1,11.4,1,8.7,1
2/1/2003 23:45,19.5,1,52.8,1,11.4,1,8.8,1
2/2/2003 0:00,19.7,1,52.8,1,11.4,1,8.9,1
2/2/2003 0:15,19.7,1,52.9,1,11.3,1,9.1,1
2/2/2003 0:30,19.8,1,52.8,1,11.3,1,7.5,1
2/2/2003 0:45,19,1,51.8,1,11.2,1,7.7,1
2/2/2003 1:00,18.5,1,50.7,1,11.3,1,7.8,1
2/2/2003 1:15,18.1,1,49.2,1,11.4,1,7.9,1
2/2/2003 1:30,17.7,1,49,1,11.5,1,8.1,1
2/2/2003 1:45,17.4,1,48.7,1,11.6,1,8.2,1
2/2/2003 2:00,17.1,1,47.8,1,11.7,1,8.3,1
2/2/2003 2:15,16.8,1,47.6,1,11.8,1,8.5,1
2/2/2003 2:30,16.5,1,47.5,1,11.9,1,8.6,1
2/2/2003 2:45,16.2,1,47.6,1,11.9,1,8.7,1
2/2/2003 3:00,15.9,1,47.6,1,11.9,1,8.8,1
2/2/2003 3:15,15.7,1,47.5,1,12,1,8.9,1
2/2/2003 3:30,15.5,1,47.5,1,12,1,9,1
2/2/2003 3:45,15.3,1,47.4,1,12,1,9.1,1
2/2/2003 4:00,15.1,1,47.3,1,12,1,9.2,1
2/2/2003 4:15,14.8,1,47.4,1,11.9,1,9.3,1
2/2/2003 4:30,14.7,1,47.3,1,11.9,1,9.4,1
2/2/2003 4:45,14.5,1,47.3,1,11.8,1,9.5,1
2/2/2003 5:00,14.3,1,47.1,1,11.7,1,9.6,1
2/2/2003 5:15,14.2,1,47.2,1,11.6,1,9.7,1
2/2/2003 5:30,13.9,1,47.2,1,11.5,1,9.8,1
2/2/2003 5:45,14.2,1,48.6,1,11.4,1,9.8,1
2/2/2003 6:00,14.6,1,50.3,1,11.3,1,9.9,1
2/2/2003 6:15,15,1,51.1,1,11.2,1,10,1
2/2/2003 6:30,15.3,1,51.8,1,11,1,10.1,1
2/2/2003 6:45,15.7,1,52.6,1,10.9,1,7.8,1
2/2/2003 7:00,16,1,53.5,1,10.7,1,7.8,1
2/2/2003 7:15,15.7,1,53.3,1,10.6,1,8,1
2/2/2003 7:30,15.1,1,52.4,1,10.5,1,8.1,1
2/2/2003 7:45,14.8,1,51.5,1,10.4,1,8.2,1
2/2/2003 8:00,14.5,1,50.7,1,10.3,1,8.3,1
2/2/2003 8:15,14.3,1,50.1,1,10.2,1,8.4,1
2/2/2003 8:30,14.1,1,49.4,1,10.1,1,8.5,1
2/2/2003 8:45,13.9,1,49.1,1,10,1,8.6,1
2/2/2003 9:00,14.2,1,50.4,1,10,1,7.3,1
2/2/2003 9:15,14.7,1,52,1,10.1,1,7.4,1
2/2/2003 9:30,14.9,1,53.9,1,10.3,1,7.5,1
2/2/2003 9:45,16,1,53.9,1,10.4,1,7.6,1
2/2/2003 10:00,15.7,1,53.1,1,10.7,1,7.7,1
2/2/2003 10:15,15.3,1,50.9,1,11,1,7.9,1
2/2/2003 10:30,15.9,1,52.1,1,11.2,1,8,1
2/2/2003 10:45,16.1,1,52.3,1,11.5,1,8.1,1
2/2/2003 11:00,16.4,1,52.8,1,11.6,1,8.2,1
2/2/2003 11:15,16.8,1,53.3,1,11.8,1,8.3,1
2/2/2003 11:30,17.1,1,53.4,1,12,1,8.4,1
2/2/2003 11:45,17.4,1,53.5,1,12.2,1,8.5,1
2/2/2003 12:00,16.7,1,53.5,1,12.4,1,8.6,1
2/2/2003 12:15,16.2,1,52.1,1,12.5,1,8.7,1
2/2/2003 12:30,15.8,1,50.9,1,12.6,1,8.8,1
2/2/2003 12:45,15.5,1,50.4,1,12.6,1,8.9,1
2/2/2003 13:00,15.3,1,50,1,12.7,1,9,1
2/2/2003 13:15,15,1,49.6,1,12.7,1,9.1,1
2/2/2003 13:30,14.9,1,49.1,1,12.7,1,9.2,1
2/2/2003 13:45,14.8,1,48.8,1,12.7,1,9.3,1
2/2/2003 14:00,14.6,1,48.5,1,12.7,1,9.4,1
2/2/2003 14:15,14.5,1,48.2,1,12.6,1,9.5,1
2/2/2003 14:30,14.4,1,48,1,12.6,1,9.6,1
2/2/2003 14:45,14.3,1,47.5,1,12.6,1,9.7,1
2/2/2003 15:00,14.2,1,47.6,1,12.5,1,9.7,1
2/2/2003 15:15,14.1,1,47.2,1,12.5,1,9.8,1
2/2/2003 15:30,14,1,47.4,1,12.4,1,9.9,1
2/2/2003 15:45,14.9,1,48.5,1,12.4,1,9.9,1
2/2/2003 16:00,15.6,1,50.5,1,12.4,1,10,1
2/2/2003 16:15,16.1,1,51.3,1,12.4,1,10.1,1
2/2/2003 16:30,17.4,1,50.7,1,12.5,1,10.2,1
2/2/2003 16:45,18,1,51,1,12.6,1,10.3,1
2/2/2003 17:00,18,1,51.7,1,12.7,1,10.4,1
2/2/2003 17:15,18.2,1,51.8,1,12.9,1,10.5,1
2/2/2003 17:30,18.3,1,52.1,1,13,1,10.5,1
2/2/2003 17:45,18.5,1,52.6,1,13.2,1,10.6,1
2/2/2003 18:00,18.7,1,53.2,1,13.4,1,10.7,1
2/2/2003 18:15,18.9,1,53.6,1,13.5,1,10.8,1
2/2/2003 18:30,19,1,52.5,1,13.7,1,7.6,1
2/2/2003 18:45,19.2,1,54.2,1,13.8,1,6.3,1
2/2/2003 19:00,19.5,1,54.4,1,13.9,1,6.5,1
2/2/2003 19:15,19.6,1,53.6,1,14.1,1,6.6,1
2/2/2003 19:30,19.7,1,51.5,1,14.2,1,6.8,1
2/2/2003 19:45,19.7,1,53.1,1,14.3,1,6.9,1
2/2/2003 20:00,19.2,1,51.6,1,14.3,1,7.1,1
2/2/2003 20:15,19,1,51.4,1,14.4,1,7.2,1
2/2/2003 20:30,19.4,1,52.2,1,14.4,1,7.4,1
2/2/2003 20:45,19.7,1,52.3,1,14.4,1,6.4,1
2/2/2003 21:00,19.9,1,53,1,14.5,1,6.5,1
2/2/2003 21:15,20.2,1,53.3,1,14.6,1,6.7,1
2/2/2003 21:30,20.3,1,53.6,1,14.7,1,6.9,1
2/2/2003 21:45,20.4,1,54.5,1,14.8,1,7,1
2/2/2003 22:00,20.6,1,54.8,1,14.9,1,7.2,1
2/2/2003 22:15,20,1,54.3,1,15,1,7.4,1
2/2/2003 22:30,19.5,1,52.4,1,15,1,6.5,1
2/2/2003 22:45,19.1,1,51.4,1,15,1,6.7,1
2/2/2003 23:00,18.7,1,50.8,1,14.9,1,6.8,1
2/2/2003 23:15,18.5,1,50.2,1,14.8,1,7,1
2/2/2003 23:30,18.5,1,50.2,1,14.7,1,7.2,1
2/2/2003 23:45,18.8,1,52.3,1,14.6,1,7.3,1
2/3/2003 0:00,19.1,1,52.8,1,14.5,1,7.5,1
2/3/2003 0:15,19.4,1,53.3,1,14.4,1,7.7,1
2/3/2003 0:30,19.6,1,53.2,1,14.3,1,7.8,1
2/3/2003 0:45,19.7,1,54,1,14.2,1,8,1
2/3/2003 1:00,19.9,1,55.6,1,14.2,1,8.2,1
2/3/2003 1:15,20.1,1,55.8,1,14.2,1,8.3,1
2/3/2003 1:30,20.2,1,55.6,1,14.2,1,8.5,1
2/3/2003 1:45,20,1,54.5,1,14.1,1,8.6,1
2/3/2003 2:00,19.4,1,53.1,1,14.2,1,8.8,1
2/3/2003 2:15,19,1,52.2,1,14.2,1,8.9,1
2/3/2003 2:30,18.6,1,51.5,1,14.2,1,9,1
2/3/2003 2:45,18.3,1,51,1,14.2,1,9.2,1
2/3/2003 3:00,18.1,1,50.3,1,14.2,1,9.3,1
2/3/2003 3:15,17.8,1,50.3,1,14.2,1,9.4,1
2/3/2003 3:30,17.5,1,49.8,1,14.2,1,9.5,1
2/3/2003 3:45,17.3,1,49.7,1,14.2,1,9.6,1
2/3/2003 4:00,17,1,49.5,1,14.1,1,9.8,1
2/3/2003 4:15,16.8,1,49.4,1,14.1,1,9.9,1
2/3/2003 4:30,16.6,1,49.4,1,14.1,1,10,1
2/3/2003 4:45,16.3,1,49.1,1,14,1,10.1,1
2/3/2003 5:00,16.1,1,49.2,1,14,1,10.2,1
2/3/2003 5:15,15.9,1,49.1,1,13.9,1,10.3,1
2/3/2003 5:30,15.7,1,49.2,1,13.8,1,10.4,1
2/3/2003 5:45,15.9,1,50.6,1,13.7,1,10.5,1
2/3/2003 6:00,16.3,1,52.1,1,13.6,1,8.8,1
2/3/2003 6:15,16.7,1,53.3,1,13.5,1,9,1
2/3/2003 6:30,17,1,53.7,1,13.4,1,9.1,1
2/3/2003 6:45,17.3,1,55.1,1,13.3,1,9.1,1
2/3/2003 7:00,17.4,1,55.9,1,13.2,1,9.2,1
2/3/2003 7:15,17.7,1,55.4,1,13.1,1,9.3,1
2/3/2003 7:30,17.9,1,55.4,1,13,1,9.4,1
2/3/2003 7:45,18.1,1,55.1,1,13,1,9.5,1
2/3/2003 8:00,17.4,1,53.1,1,13,1,9.6,1
2/3/2003 8:15,16.9,1,51.7,1,13,1,9.7,1
2/3/2003 8:30,16.6,1,50.7,1,13.1,1,9.8,1
2/3/2003 8:45,16.3,1,50.1,1,13.1,1,9.9,1
2/3/2003 9:00,16.1,1,49.6,1,13.2,1,9.9,1
2/3/2003 9:15,15.9,1,48.9,1,13.2,1,10,1
2/3/2003 9:30,15.6,1,48.9,1,13.2,1,10.2,1
2/3/2003 9:45,15.5,1,48.5,1,13.3,1,10.3,1
2/3/2003 10:00,15.3,1,48.6,1,13.4,1,10.4,1
2/3/2003 10:15,15.1,1,48.4,1,13.4,1,10.5,1
2/3/2003 10:30,15,1,48.2,1,13.4,1,10.5,1
2/3/2003 10:45,14.9,1,48.3,1,13.4,1,10.6,1
2/3/2003 11:00,14.8,1,47.8,1,13.4,1,10.7,1
2/3/2003 11:15,14.7,1,47.8,1,13.4,1,10.8,1
2/3/2003 11:30,14.6,1,47.6,1,13.3,1,10.9,1
2/3/2003 11:45,14.5,1,47.4,1,13.3,1,11,1
2/3/2003 12:00,14.4,1,47.4,1,13.2,1,11,1
2/3/2003 12:15,14.3,1,47.4,1,13.1,1,11.1,1
2/3/2003 12:30,14.2,1,47.4,1,13.1,1,11.2,1
2/3/2003 12:45,14.2,1,47,1,13,1,11.3,1
2/3/2003 13:00,14.1,1,47.1,1,13,1,11.3,1
2/3/2003 13:15,14.1,1,46.7,1,12.9,1,11.4,1
2/3/2003 13:30,14.1,1,46.7,1,12.9,1,11.5,1
2/3/2003 13:45,14,1,46.6,1,12.8,1,11.5,1
2/3/2003 14:00,13.9,1,46.5,1,12.8,1,11.6,1
2/3/2003 14:15,13.9,1,46.7,1,12.8,1,11.6,1
2/3/2003 14:30,13.9,1,46.4,1,12.7,1,11.7,1
2/3/2003 14:45,13.9,1,46.6,1,12.7,1,11.8,1
2/3/2003 15:00,14,1,46.4,1,12.7,1,11.8,1
2/3/2003 15:15,14,1,46.3,1,12.7,1,11.8,1
2/3/2003 15:30,13.9,1,46.1,1,12.6,1,11.9,1
2/3/2003 15:45,13.9,1,46,1,12.6,1,11.9,1
2/3/2003 16:00,13.9,1,46,1,12.6,1,12,1
2/3/2003 16:15,13.8,1,45.8,1,12.5,1,12,1
2/3/2003 16:30,13.8,1,46,1,12.5,1,12.1,1
2/3/2003 16:45,13.8,1,45.9,1,12.4,1,12.1,1
2/3/2003 17:00,13.7,1,45.9,1,12.4,1,12.2,1
2/3/2003 17:15,13.7,1,45.8,1,12.3,1,12.2,1
2/3/2003 17:30,13.6,1,46,1,12.3,1,12.2,1
2/3/2003 17:45,13.6,1,46.3,1,12.2,1,12.3,1
2/3/2003 18:00,13.5,1,46.6,1,12.2,1,12.3,1
2/3/2003 18:15,14,1,47.6,1,12.1,1,12.3,1
2/3/2003 18:30,14.7,1,49.3,1,12.1,1,12.4,1
2/3/2003 18:45,15.2,1,52.6,1,12,1,12.4,1
2/3/2003 19:00,15.8,1,51.4,1,12.1,1,12.4,1
2/3/2003 19:15,16.2,1,51.4,1,12.1,1,12.5,1
2/3/2003 19:30,16.7,1,52.9,1,12.1,1,12.5,1
2/3/2003 19:45,17.2,1,52.3,1,12.2,1,12.5,1
2/3/2003 20:00,17.6,1,52.5,1,12.3,1,12.6,1
2/3/2003 20:15,17.7,1,53.2,1,12.4,1,7.3,1
2/3/2003 20:30,18.2,1,53.9,1,12.6,1,7.3,1
2/3/2003 20:45,18.8,1,53.3,1,12.7,1,6.3,1
2/3/2003 21:00,19.2,1,53.4,1,12.8,1,6.4,1
2/3/2003 21:15,19.4,1,53.5,1,13,1,6.6,1
2/3/2003 21:30,19.4,1,54.1,1,13.1,1,6.7,1
2/3/2003 21:45,19.4,1,54.3,1,13.2,1,6.4,1
2/3/2003 22:00,19.5,1,54.3,1,13.4,1,6.5,1
2/3/2003 22:15,19.6,1,53.9,1,13.5,1,6.7,1
2/3/2003 22:30,19.7,1,53.8,1,13.6,1,6.9,1
2/3/2003 22:45,19.8,1,53.8,1,13.7,1,7,1
2/3/2003 23:00,19.9,1,53.6,1,13.7,1,7.2,1
2/3/2003 23:15,20,1,53.8,1,13.8,1,7.4,1
2/3/2003 23:30,20.2,1,53.5,1,13.9,1,7.5,1
2/3/2003 23:45,20,1,53.6,1,13.9,1,7.7,1
2/4/2003 0:00,20.1,1,53.8,1,14,1,7.9,1
2/4/2003 0:15,20.1,1,53.7,1,14,1,8,1
2/4/2003 0:30,20.2,1,53.7,1,14.1,1,8.2,1
2/4/2003 0:45,20.4,1,53.6,1,14.2,1,8.3,1
2/4/2003 1:00,20.7,1,53.8,1,14.2,1,8.5,1
2/4/2003 1:15,20.4,1,54.3,1,14.3,1,8.6,1
2/4/2003 1:30,19.7,1,57.5,1,14.4,1,8.8,1
2/4/2003 1:45,20.1,1,54.9,1,14.4,1,8.9,1
2/4/2003 2:00,20.3,1,55.1,1,14.4,1,9,1
2/4/2003 2:15,20.4,1,55.3,1,14.4,1,9.2,1
2/4/2003 2:30,20.5,1,55.6,1,14.5,1,9.3,1
2/4/2003 2:45,19.7,1,55.7,1,14.5,1,9.5,1
2/4/2003 3:00,19.3,1,54.7,1,14.5,1,9.6,1
2/4/2003 3:15,18.9,1,54,1,14.6,1,9.7,1
2/4/2003 3:30,18.6,1,53.3,1,14.6,1,9.8,1
2/4/2003 3:45,18.3,1,53,1,14.6,1,10,1
2/4/2003 4:00,18.1,1,52.7,1,14.6,1,10.1,1
2/4/2003 4:15,17.8,1,52.6,1,14.6,1,10.3,1
2/4/2003 4:30,17.6,1,52.5,1,14.6,1,10.4,1
2/4/2003 4:45,17.3,1,52.3,1,14.6,1,10.5,1
2/4/2003 5:00,17.1,1,52.2,1,14.5,1,10.7,1
2/4/2003 5:15,16.9,1,52,1,14.5,1,10.8,1
2/4/2003 5:30,16.6,1,52,1,14.4,1,10.9,1
2/4/2003 5:45,17,1,53.8,1,14.4,1,8.5,1
2/4/2003 6:00,17.3,1,56.6,1,14.3,1,8.6,1
2/4/2003 6:15,17.7,1,58.4,1,14.3,1,8.8,1
2/4/2003 6:30,17.8,1,60.2,1,14.2,1,8.9,1
2/4/2003 6:45,18.1,1,61.5,1,14.2,1,9,1
2/4/2003 7:00,18.3,1,62,1,14.1,1,8.3,1
2/4/2003 7:15,18.6,1,62.1,1,14.1,1,8.4,1
2/4/2003 7:30,18.9,1,62.1,1,14,1,8.5,1
2/4/2003 7:45,19.2,1,61.5,1,14,1,7.5,1
2/4/2003 8:00,18.8,1,60.4,1,13.9,1,7.6,1
2/4/2003 8:15,17.9,1,56.3,1,13.8,1,7.7,1
2/4/2003 8:30,17.5,1,55.4,1,13.7,1,7.9,1
2/4/2003 8:45,17.2,1,54.9,1,13.6,1,8,1
2/4/2003 9:00,16.9,1,54.8,1,13.5,1,8.1,1
2/4/2003 9:15,16.7,1,54.2,1,13.4,1,8.3,1
2/4/2003 9:30,16.4,1,54,1,13.3,1,8.4,1
2/4/2003 9:45,16.1,1,53.7,1,13.1,1,8.5,1
2/4/2003 10:00,15.9,1,53.6,1,13,1,8.7,1
2/4/2003 10:15,15.7,1,53.3,1,12.8,1,8.8,1
2/4/2003 10:30,15.5,1,53,1,12.7,1,8.9,1
2/4/2003 10:45,15.3,1,52.9,1,12.6,1,9,1
2/4/2003 11:00,15.1,1,52.6,1,12.5,1,9.1,1
2/4/2003 11:15,14.9,1,52.7,1,12.3,1,9.2,1
2/4/2003 11:30,14.8,1,52.6,1,12.2,1,9.3,1
2/4/2003 11:45,14.7,1,52.6,1,12.1,1,9.4,1
2/4/2003 12:00,14.6,1,52.5,1,12,1,9.5,1
2/4/2003 12:15,14.5,1,52.6,1,12,1,9.6,1
2/4/2003 12:30,14.4,1,52.5,1,11.9,1,9.7,1
2/4/2003 12:45,14.3,1,52.5,1,11.8,1,9.8,1
2/4/2003 13:00,14.2,1,52.7,1,11.8,1,9.9,1
2/4/2003 13:15,14.1,1,52.6,1,11.7,1,10,1
2/4/2003 13:30,14,1,52.6,1,11.7,1,10.1,1
2/4/2003 13:45,14,1,52.4,1,11.6,1,10.2,1
2/4/2003 14:00,13.9,1,52.5,1,11.6,1,10.3,1
2/4/2003 14:15,13.9,1,52.5,1,11.5,1,10.4,1
2/4/2003 14:30,13.8,1,52.6,1,11.5,1,10.5,1
2/4/2003 14:45,13.7,1,52.6,1,11.5,1,10.6,1
2/4/2003 15:00,13.7,1,52.6,1,11.4,1,10.7,1
2/4/2003 15:15,13.6,1,52.5,1,11.4,1,10.8,1
2/4/2003 15:30,13.6,1,52.4,1,11.4,1,10.8,1
2/4/2003 15:45,13.5,1,52.5,1,11.3,1,10.9,1
2/4/2003 16:00,13.5,1,52.4,1,11.3,1,11,1
2/4/2003 16:15,13.4,1,52.4,1,11.3,1,11,1
2/4/2003 16:30,13.4,1,52.3,1,11.2,1,11.1,1
2/4/2003 16:45,13.3,1,52.2,1,11.2,1,11.2,1
2/4/2003 17:00,13.2,1,52.2,1,11.1,1,11.3,1
2/4/2003 17:15,13.2,1,52.1,1,11,1,11.3,1
2/4/2003 17:30,13.1,1,52.1,1,11,1,11.4,1
2/4/2003 17:45,13,1,52.1,1,10.9,1,11.4,1
2/4/2003 18:00,13,1,52.1,1,10.9,1,11.5,1
2/4/2003 18:15,13.2,1,53.2,1,10.8,1,11.6,1
2/4/2003 18:30,14,1,55.4,1,10.7,1,11.6,1
2/4/2003 18:45,14.6,1,58,1,10.7,1,11.7,1
2/4/2003 19:00,15.1,1,58.1,1,10.7,1,11.7,1
2/4/2003 19:15,15.6,1,58.6,1,10.8,1,11.8,1
2/4/2003 19:30,16,1,58.9,1,10.8,1,11.8,1
2/4/2003 19:45,16.4,1,58.7,1,10.9,1,11.8,1
2/4/2003 20:00,16.6,1,56.6,1,11,1,11.9,1
2/4/2003 20:15,16.8,1,55.8,1,11.1,1,11.9,1
2/4/2003 20:30,17,1,57.7,1,11.2,1,12,1
2/4/2003 20:45,17.3,1,58.1,1,11.3,1,12,1
2/4/2003 21:00,17.7,1,59.4,1,11.4,1,12.1,1
2/4/2003 21:15,17.9,1,59.5,1,11.6,1,12.1,1
2/4/2003 21:30,18.3,1,59.7,1,11.7,1,12,1
2/4/2003 21:45,18.4,1,60.1,1,11.9,1,6.3,1
2/4/2003 22:00,18.7,1,61.2,1,12,1,6.4,1
2/4/2003 22:15,18.5,1,61.4,1,12.3,1,6.6,1
2/4/2003 22:30,18.2,1,60.9,1,12.5,1,6.8,1
2/4/2003 22:45,18.4,1,61.7,1,12.7,1,7,1
2/4/2003 23:00,18.6,1,62.1,1,12.9,1,7.1,1
2/4/2003 23:15,18.8,1,62.5,1,13,1,7.3,1
2/4/2003 23:30,18.9,1,63.2,1,13,1,7.5,1
2/4/2003 23:45,19,1,63.2,1,13,1,7.7,1
2/5/2003 0:00,19.1,1,63.4,1,13.1,1,7.8,1
2/5/2003 0:15,19.3,1,63.1,1,13.1,1,8,1
2/5/2003 0:30,19.4,1,63,1,13.2,1,8.2,1
2/5/2003 0:45,19,1,63.2,1,13.3,1,8.3,1
2/5/2003 1:00,18.7,1,62.3,1,13.4,1,8.5,1
2/5/2003 1:15,18.3,1,61.5,1,13.5,1,8.6,1
2/5/2003 1:30,18.1,1,60.1,1,13.6,1,8.8,1
2/5/2003 1:45,17.9,1,59,1,13.7,1,8.9,1
2/5/2003 2:00,17.8,1,58.2,1,13.8,1,9,1
2/5/2003 2:15,17.5,1,57.6,1,13.8,1,9.2,1
2/5/2003 2:30,17.3,1,57.2,1,13.9,1,9.3,1
2/5/2003 2:45,17.1,1,56.9,1,13.9,1,9.4,1
2/5/2003 3:00,16.9,1,56.5,1,13.9,1,9.6,1
2/5/2003 3:15,16.7,1,56.4,1,13.9,1,9.7,1
2/5/2003 3:30,16.5,1,56.3,1,13.9,1,9.8,1
2/5/2003 3:45,16.3,1,56.3,1,13.9,1,9.9,1
2/5/2003 4:00,16.1,1,56.2,1,13.9,1,10,1
2/5/2003 4:15,15.9,1,56.2,1,13.9,1,10.1,1
2/5/2003 4:30,15.7,1,56,1,13.8,1,10.3,1
2/5/2003 4:45,15.6,1,55.9,1,13.7,1,10.4,1
2/5/2003 5:00,15.4,1,55.8,1,13.7,1,10.5,1
2/5/2003 5:15,15.2,1,55.8,1,13.6,1,10.6,1
2/5/2003 5:30,15,1,55.6,1,13.5,1,10.7,1
2/5/2003 5:45,14.9,1,55.6,1,13.5,1,10.8,1
2/5/2003 6:00,14.8,1,55.4,1,13.4,1,10.9,1
2/5/2003 6:15,14.6,1,55.4,1,13.4,1,11,1
2/5/2003 6:30,14.5,1,55.3,1,13.3,1,11.1,1
2/5/2003 6:45,14.6,1,57.1,1,13.3,1,11.2,1
2/5/2003 7:00,15.1,1,59.3,1,13.2,1,11.3,1
2/5/2003 7:15,15.6,1,60.5,1,13.2,1,8,1
2/5/2003 7:30,16,1,61.8,1,13.1,1,8,1
2/5/2003 7:45,15.4,1,60.8,1,12.9,1,8.1,1
2/5/2003 8:00,15.2,1,59.3,1,12.8,1,8.3,1
2/5/2003 8:15,15,1,58.6,1,12.7,1,8.4,1
2/5/2003 8:30,14.8,1,58.2,1,12.6,1,8.5,1
2/5/2003 8:45,14.8,1,57.8,1,12.5,1,8.6,1
2/5/2003 9:00,14.6,1,57.5,1,12.5,1,8.7,1
2/5/2003 9:15,15.1,1,60.7,1,12.5,1,7.3,1
2/5/2003 9:30,15.8,1,61.5,1,12.6,1,7.4,1
2/5/2003 9:45,16.7,1,61.4,1,12.8,1,7.6,1
2/5/2003 10:00,17.2,1,62.2,1,13,1,7.7,1
2/5/2003 10:15,17.7,1,62.3,1,13.2,1,7.9,1
2/5/2003 10:30,18,1,62.3,1,13.5,1,7,1
2/5/2003 10:45,17.2,1,62.7,1,13.7,1,7.2,1
2/5/2003 11:00,16.7,1,61.6,1,13.8,1,7.3,1
2/5/2003 11:15,16.5,1,61.4,1,13.9,1,7.5,1
2/5/2003 11:30,16.3,1,60.8,1,14,1,7.6,1
2/5/2003 11:45,16.2,1,60.4,1,14.1,1,7.8,1
2/5/2003 12:00,16.1,1,60,1,14.2,1,7.9,1
2/5/2003 12:15,15.9,1,59.6,1,14.2,1,8,1
2/5/2003 12:30,15.8,1,59.4,1,14.2,1,8.2,1
2/5/2003 12:45,15.7,1,59.2,1,14.2,1,8.3,1
2/5/2003 13:00,15.7,1,58.9,1,14.2,1,8.4,1
2/5/2003 13:15,16.7,1,60,1,14.2,1,8.6,1
2/5/2003 13:30,17.4,1,60.6,1,14.2,1,7.2,1
2/5/2003 13:45,17.9,1,61.5,1,14.2,1,7.3,1
2/5/2003 14:00,18.3,1,61.7,1,14.2,1,7.5,1
2/5/2003 14:15,18.5,1,61.7,1,14.3,1,7.6,1
2/5/2003 14:30,18.9,1,61.4,1,14.4,1,7.8,1
2/5/2003 14:45,19.2,1,61.2,1,14.5,1,7.9,1
2/5/2003 15:00,19.4,1,60.9,1,14.6,1,8.1,1
2/5/2003 15:15,19.8,1,60.4,1,14.7,1,8.2,1
2/5/2003 15:30,19.5,1,61.4,1,14.9,1,8.4,1
2/5/2003 15:45,19.6,1,61.1,1,15,1,8.5,1
2/5/2003 16:00,19.9,1,60.8,1,15.2,1,8.7,1
2/5/2003 16:15,20.1,1,61,1,15.4,1,8.8,1
2/5/2003 16:30,20.4,1,60.5,1,15.7,1,8.9,1
2/5/2003 16:45,20.4,1,60.4,1,15.9,1,9.1,1
2/5/2003 17:00,20.7,1,60,1,16.1,1,9.2,1
2/5/2003 17:15,20.8,1,59.6,1,16.3,1,9.3,1
2/5/2003 17:30,20.9,1,59.3,1,16.5,1,7.9,1
2/5/2003 17:45,20.3,1,59.2,1,16.5,1,8,1
2/5/2003 18:00,20,1,58.4,1,16.5,1,8.1,1
2/5/2003 18:15,19.8,1,57.6,1,16.5,1,8.3,1
2/5/2003 18:30,19.6,1,57.3,1,16.4,1,8.4,1
2/5/2003 18:45,20,1,55,1,16.3,1,8.6,1
2/5/2003 19:00,20.3,1,58,1,16.3,1,8.7,1
2/5/2003 19:15,20.8,1,57.4,1,16.2,1,7.1,1
2/5/2003 19:30,21,1,57,1,16.2,1,7.3,1
2/5/2003 19:45,21,1,56.1,1,16.2,1,7.4,1
2/5/2003 20:00,20.5,1,55.3,1,16.2,1,7.6,1
2/5/2003 20:15,20.3,1,55.7,1,16.2,1,7.7,1
2/5/2003 20:30,20.6,1,57.5,1,16.1,1,7.9,1
2/5/2003 20:45,20.9,1,57.8,1,16.1,1,8,1
2/5/2003 21:00,21.2,1,58.1,1,16.2,1,8.2,1
2/5/2003 21:15,21.3,1,58.6,1,16.3,1,7,1
2/5/2003 21:30,21.4,1,59,1,16.4,1,7.2,1
2/5/2003 21:45,21.3,1,58.7,1,16.4,1,7.4,1
2/5/2003 22:00,20.5,1,56.9,1,16.5,1,6.8,1
2/5/2003 22:15,20.1,1,56.2,1,16.5,1,6.9,1
2/5/2003 22:30,19.7,1,55.4,1,16.5,1,7.1,1
2/5/2003 22:45,19.4,1,54.8,1,16.5,1,7.3,1
2/5/2003 23:00,19.2,1,54.6,1,16.5,1,7.5,1
2/5/2003 23:15,19,1,54.4,1,16.5,1,7.6,1
2/5/2003 23:30,18.7,1,54.2,1,16.5,1,7.8,1
2/5/2003 23:45,18.5,1,53.7,1,16.4,1,8,1
2/6/2003 0:00,18.3,1,53.8,1,16.3,1,8.1,1
2/6/2003 0:15,18.1,1,53.5,1,16.3,1,8.3,1
2/6/2003 0:30,17.9,1,53.4,1,16.2,1,8.5,1
2/6/2003 0:45,17.7,1,53.3,1,16.1,1,8.6,1
2/6/2003 1:00,17.5,1,53.2,1,16.1,1,8.8,1
2/6/2003 1:15,17.3,1,53.2,1,16,1,8.9,1
2/6/2003 1:30,17.1,1,53.1,1,15.8,1,9.1,1
2/6/2003 1:45,16.9,1,53.2,1,15.7,1,9.2,1
2/6/2003 2:00,16.8,1,53.1,1,15.6,1,9.3,1
2/6/2003 2:15,16.6,1,53.1,1,15.4,1,9.5,1
2/6/2003 2:30,16.4,1,53.2,1,15.3,1,9.6,1
2/6/2003 2:45,16.3,1,52.9,1,15.1,1,9.7,1
2/6/2003 3:00,16.1,1,53.1,1,15,1,9.8,1
2/6/2003 3:15,15.9,1,52.9,1,14.9,1,9.9,1
2/6/2003 3:30,15.7,1,52.9,1,14.8,1,10.1,1
2/6/2003 3:45,15.5,1,52.7,1,14.7,1,10.2,1
2/6/2003 4:00,15.4,1,52.9,1,14.6,1,10.3,1
2/6/2003 4:15,15.2,1,52.8,1,14.4,1,10.4,1
2/6/2003 4:30,15,1,52.6,1,14.3,1,10.5,1
2/6/2003 4:45,14.9,1,52.8,1,14.3,1,10.6,1
2/6/2003 5:00,14.8,1,52.5,1,14.2,1,10.7,1
2/6/2003 5:15,14.6,1,52.5,1,14.1,1,10.8,1
2/6/2003 5:30,14.5,1,52.4,1,14,1,10.9,1
2/6/2003 5:45,14.9,1,54.1,1,13.9,1,11,1
2/6/2003 6:00,16.9,1,53.5,1,13.7,1,11.1,1
2/6/2003 6:15,17.9,1,54.3,1,13.6,1,9,1
2/6/2003 6:30,18,1,55.4,1,13.6,1,8.4,1
2/6/2003 6:45,18,1,55.9,1,13.5,1,8.5,1
2/6/2003 7:00,18.1,1,56.4,1,13.5,1,8.6,1
2/6/2003 7:15,18.2,1,56.5,1,13.5,1,8.8,1
2/6/2003 7:30,18.3,1,56.6,1,13.5,1,8.9,1
2/6/2003 7:45,18,1,57.4,1,13.5,1,9,1
2/6/2003 8:00,17.5,1,55.9,1,13.5,1,9.1,1
2/6/2003 8:15,17,1,54.9,1,13.5,1,9.2,1
2/6/2003 8:30,16.7,1,53.6,1,13.6,1,9.3,1
2/6/2003 8:45,16.4,1,53.2,1,13.6,1,9.4,1
2/6/2003 9:00,16.2,1,52.5,1,13.7,1,9.5,1
2/6/2003 9:15,15.9,1,52.3,1,13.7,1,9.6,1
2/6/2003 9:30,15.7,1,51.8,1,13.7,1,9.7,1
2/6/2003 9:45,15.6,1,51.7,1,13.8,1,9.8,1
2/6/2003 10:00,15.5,1,51.3,1,13.8,1,9.9,1
2/6/2003 10:15,15.3,1,51.3,1,13.8,1,10,1
2/6/2003 10:30,15.1,1,51.5,1,13.8,1,10.1,1
2/6/2003 10:45,15.1,1,51,1,13.8,1,10.2,1
2/6/2003 11:00,15,1,50.8,1,13.7,1,10.3,1
2/6/2003 11:15,15,1,50.5,1,13.7,1,10.4,1
2/6/2003 11:30,14.9,1,50.5,1,13.7,1,10.5,1
2/6/2003 11:45,14.8,1,50.2,1,13.6,1,10.6,1
2/6/2003 12:00,14.7,1,50,1,13.5,1,10.7,1
2/6/2003 12:15,14.7,1,50,1,13.5,1,10.8,1
2/6/2003 12:30,14.6,1,50,1,13.4,1,10.9,1
2/6/2003 12:45,14.6,1,49.9,1,13.4,1,11,1
2/6/2003 13:00,14.5,1,49.9,1,13.3,1,11,1
2/6/2003 13:15,14.5,1,49.7,1,13.3,1,11.1,1
2/6/2003 13:30,14.4,1,49.5,1,13.3,1,11.2,1
2/6/2003 13:45,14.4,1,49.4,1,13.2,1,11.3,1
2/6/2003 14:00,14.3,1,49.2,1,13.2,1,11.3,1
2/6/2003 14:15,14.3,1,49,1,13.2,1,11.4,1
2/6/2003 14:30,14.3,1,49.1,1,13.2,1,11.5,1
2/6/2003 14:45,14.2,1,48.9,1,13.1,1,11.6,1
2/6/2003 15:00,14.2,1,48.7,1,13.1,1,11.6,1
2/6/2003 15:15,14.1,1,49,1,13,1,11.7,1
2/6/2003 15:30,14.1,1,48.8,1,13,1,11.7,1
2/6/2003 15:45,14.1,1,48.7,1,13,1,11.8,1
2/6/2003 16:00,14,1,48.5,1,12.9,1,11.9,1
2/6/2003 16:15,14,1,48.3,1,12.9,1,11.9,1
2/6/2003 16:30,13.9,1,48.2,1,12.8,1,12,1
2/6/2003 16:45,13.9,1,48,1,12.7,1,12,1
2/6/2003 17:00,13.8,1,48,1,12.7,1,12.1,1
2/6/2003 17:15,13.8,1,47.8,1,12.6,1,12.1,1
2/6/2003 17:30,13.7,1,47.9,1,12.5,1,12.2,1
2/6/2003 17:45,13.6,1,47.7,1,12.4,1,12.2,1
2/6/2003 18:00,13.5,1,47.6,1,12.3,1,12.2,1
2/6/2003 18:15,13.5,1,48.7,1,12.3,1,12.3,1
2/6/2003 18:30,14.2,1,51,1,12.2,1,12.3,1
2/6/2003 18:45,14.6,1,50.9,1,12.1,1,12.4,1
2/6/2003 19:00,16,1,56.8,1,12.1,1,12.4,1
2/6/2003 19:15,16.4,1,60.3,1,12.1,1,12.4,1
2/6/2003 19:30,17,1,58.4,1,12.1,1,8,1
2/6/2003 19:45,16.8,1,56,1,12.1,1,8,1
2/6/2003 20:00,17.3,1,55.3,1,12.2,1,8.1,1
2/6/2003 20:15,17.7,1,55.4,1,12.3,1,8.2,1
2/6/2003 20:30,18,1,55.6,1,12.5,1,8.3,1
2/6/2003 20:45,18.3,1,55.7,1,12.6,1,7.1,1
2/6/2003 21:00,18.4,1,55.9,1,12.7,1,7.2,1
2/6/2003 21:15,18.6,1,56.7,1,12.8,1,7.3,1
2/6/2003 21:30,18.9,1,56.4,1,12.9,1,7.5,1